[[{"header":{"parameterUnit":"m.s-1","parameterCategory":1,"la1":30.2991,"la2":30.254,"lo1":-89.0895,"lo2":-89.0444,"dy":0.0017,"dx":0.0017,"nx":28,"ny":28,"refTime":"2025-07-11T09:00:00:Z","depth":0,"parameterNumber":2,"parameterNumberName":"U-component_of_WINDS"},"data":[0,0,0,0,0,0,0,0,0,0,0,0,0,0,0,0,0,0,0,0,0,0,0,0,0,0,0,0,0,0,0,0,0,0,0,0,0,0,0,0,0,0,0,0,0,0,0,0,0,0,0,0,0,0,0,0,0,0,2.1911,2.1911,0,2.1895,2.1895,2.1894,2.1787,2.1784,2.1781,2.1779,2.1766,2.1768,2.177,0,0,0,0,0,0,0,0,0,0,0,0,0,2.185,2.1852,2.1911,2.1911,2.191,2.1895,2.1895,2.1894,2.1787,2.1784,2.1781,2.1778,2.1765,2.1768,2.177,0,0,0,0,0,0,0,0,0,0,0,0,0,2.186,2.1852,2.1911,2.1855,2.185,2.1895,2.1895,2.1894,2.1788,2.1784,2.178,2.1776,2.1764,2.1767,2.177,2.1869,0,0,2.178,2.1781,0,0,0,0,0,0,0,0,2.1859,2.1862,2.1863,2.1859,2.1853,2.1838,2.1868,2.1886,2.1789,2.1811,2.1779,2.1774,2.1793,2.1794,2.18,2.1869,2.1868,2.178,2.1782,2.1784,2.1785,0,0,0,0,0,0,0,2.1859,2.1862,2.1905,2.1863,2.1857,2.1831,2.1828,2.1871,2.1825,2.1809,2.1801,2.1801,2.179,2.1797,2.1799,2.1868,2.178,2.1783,2.1785,2.1786,2.2015,2.2019,0,0,0,0,0,0,2.1866,2.1862,2.1905,2.1904,2.1846,2.1835,2.1832,2.1847,2.1824,2.1817,2.1804,2.1796,2.1793,2.1795,2.1798,2.191,2.1784,2.1787,2.1788,2.2011,2.2016,2.2021,0,0,0,0,0,0,2.1865,2.187,2.1906,2.1881,2.1883,2.1841,2.1859,2.1849,2.1856,2.182,2.1812,2.182,2.179,2.1793,2.1852,2.1908,2.1788,2.1791,2.2006,2.2013,2.2018,2.2138,0,0,0,0,0,0,2.1864,2.1871,2.1908,2.1883,2.1885,2.196,2.1862,2.1852,2.1861,2.185,2.1833,2.1826,2.1788,2.1847,2.1855,2.1911,2.1793,2.2001,2.2009,2.2016,2.2128,2.2147,2.2163,0,0,0,0,0,2.1862,2.1943,2.191,2.1916,2.193,2.1963,2.1965,2.1918,2.1866,2.1903,2.188,2.1826,2.1901,2.1854,2.1862,2.1919,2.1997,2.2007,2.2016,2.212,2.2143,2.2163,0,0,0,0,0,0,2.1978,2.1939,2.1902,2.1977,2.1974,2.1945,2.199,2.1944,2.1956,2.1946,2.1888,2.1885,2.1952,2.1941,2.189,2.2013,2.194,2.1951,2.2017,2.2038,2.2055,2.2056,2.1796,0,0,0,0,0,2.2012,2.2041,2.2006,2.2076,2.2076,2.2033,2.2046,2.201,2.2005,2.2003,2.1984,2.1982,2.2005,2.2021,2.204,2.2127,2.2121,2.217,2.2187,2.2202,2.2212,2.2255,2.2276,2.2052,2.2051,2.2051,0,0,2.2083,2.2065,2.2087,2.2098,2.2092,2.2123,2.2033,2.2071,2.2094,2.2009,2.2062,2.2049,2.2043,2.2115,2.2146,2.2108,2.2273,2.2214,2.2225,2.2228,2.2267,2.2288,2.2307,2.2058,2.2057,2.2056,0,0,2.2228,2.2218,2.2274,2.2269,2.2259,2.223,2.2244,2.2221,2.2208,2.226,2.2197,2.2224,2.2265,2.2262,2.2267,2.241,2.2361,2.2418,2.2508,2.2551,2.2569,2.2584,2.2634,2.2653,2.2428,2.2429,2.2429,0,2.2318,2.2362,2.2309,2.235,2.2357,2.228,2.2337,2.2334,2.2333,2.2339,2.2297,2.2345,2.2336,2.2405,2.244,2.2447,2.246,2.2419,2.257,2.2585,2.2599,2.2646,2.2665,2.2435,2.2435,2.2434,2.2433,0,2.2472,2.2504,2.2551,2.2548,2.256,2.2609,2.2564,2.2582,2.2545,2.2521,2.2574,2.256,2.2574,2.2588,2.2554,2.2653,2.263,2.258,2.2506,2.2628,2.2671,2.2688,2.2445,2.2443,2.2441,2.2439,0,0,2.2691,2.2657,2.2675,2.2672,2.2655,2.2679,2.2724,2.2736,2.2752,2.2754,2.279,2.2825,2.2778,2.2783,2.2748,2.2785,2.2898,2.273,2.2729,2.2761,2.3005,2.3041,2.3063,2.2865,2.2869,2.2871,2.3005,0,2.2829,2.2902,2.2855,2.2937,2.2964,2.2892,2.2931,2.2925,2.2904,2.2925,2.2901,2.2926,2.2864,2.2866,2.29,2.2877,2.2946,2.2867,2.2898,2.29,2.29,2.3085,2.3124,2.3251,2.3021,2.3024,2.3026,0,2.3,2.3006,2.3089,2.3065,2.3075,2.3111,2.3117,2.3138,2.313,2.3112,2.3116,2.3071,2.3113,2.3041,2.3098,2.3046,2.3056,2.3047,2.305,2.305,2.297,2.3089,2.3291,2.3309,2.3052,2.305,2.3048,0,2.3149,2.3178,2.3231,2.3231,2.3204,2.3231,2.3221,2.3209,2.3219,2.3225,2.3231,2.3243,2.3249,2.326,2.3219,2.317,2.3282,2.3206,2.3267,2.3269,2.3293,2.3292,2.3498,2.3303,2.3303,2.3302,2.3302,0,2.3307,2.3361,2.3297,2.333,2.3387,2.3333,2.3392,2.3375,2.3364,2.3393,2.3332,2.336,2.3304,2.3327,2.3295,2.3347,2.3351,2.3337,2.3328,2.3342,2.3343,2.3347,2.3336,2.3307,2.3306,2.3305,2.3304,0,2.3482,2.3442,2.3495,2.3464,2.3458,2.3502,2.3476,2.3505,2.3479,2.3515,2.3521,2.348,2.3504,2.3464,2.3483,2.3461,2.3533,2.3511,2.3536,2.3528,2.3592,2.3586,2.3806,2.3831,2.3622,2.3624,2.3625,0,2.3585,2.3624,2.3598,2.3611,2.3604,2.3628,2.3636,2.3585,2.3597,2.3589,2.362,2.3637,2.3648,2.3689,2.3662,2.3676,2.3653,2.3729,2.3655,2.3667,2.3652,2.365,2.3653,2.3744,2.3747,2.3749,2.375,0,2.3772,2.3749,2.3764,2.3771,2.3783,2.3787,2.3786,2.3801,2.3747,2.3763,2.3785,2.3794,2.3812,2.383,2.3837,2.3828,2.3781,2.3774,2.3789,2.3803,2.3814,2.3807,2.3576,2.3769,2.3767,2.3766,2.3765,2.3764,2.3913,2.3944,2.3929,2.3946,2.394,2.394,2.3965,2.3941,2.3958,2.3968,2.3937,2.3966,2.3956,2.396,2.3956,2.3978,2.3944,2.3966,2.3971,2.3977,2.3986,2.3812,2.398,2.3979,2.3978,2.3978,2.3977,0,2.4095,2.4081,2.4098,2.4098,2.4112,2.4064,2.4061,2.4076,2.4101,2.4095,2.4107,2.4132,2.4149,2.4122,2.4135,2.4158,2.4136,2.4163,2.416,2.4158,2.4017,2.4002,2.418,2.418,2.418,2.418,2.418,2.418,2.4191,2.4239,2.4215,2.426,2.4246,2.4272,2.4274,2.4274,2.4268,2.4298,2.4311,2.4293,2.4279,2.429,2.4304,2.4295,2.4302,2.4337,2.4321,2.4189,2.4169,2.415,2.4135,2.4339,2.4339,2.446,2.4461,2.4462]},{"header":{"parameterUnit":"m.s-1","parameterCategory":1,"la1":30.2991,"la2":30.254,"lo1":-89.0895,"lo2":-89.0444,"dy":0.0017,"dx":0.0017,"nx":28,"ny":28,"refTime":"2025-07-11T09:00:00:Z","depth":0,"parameterNumber":3,"parameterNumberName":"V-component_of_WINDS"},"data":[0,0,0,0,0,0,0,0,0,0,0,0,0,0,0,0,0,0,0,0,0,0,0,0,0,0,0,0,0,0,0,0,0,0,0,0,0,0,0,0,0,0,0,0,0,0,0,0,0,0,0,0,0,0,0,0,0,0,0.5499,0.5497,0,0.5318,0.5316,0.5314,0.5185,0.5183,0.5182,0.5181,0.4989,0.4985,0.498,0,0,0,0,0,0,0,0,0,0,0,0,0,0.5724,0.572,0.5499,0.5497,0.5495,0.5318,0.5316,0.5313,0.5185,0.5183,0.5182,0.5181,0.499,0.4985,0.498,0,0,0,0,0,0,0,0,0,0,0,0,0,0.5593,0.5719,0.55,0.5409,0.5399,0.5319,0.5316,0.5313,0.5185,0.5183,0.5182,0.518,0.4992,0.4986,0.4979,0.4972,0,0,0.496,0.4958,0,0,0,0,0,0,0,0,0.56,0.5585,0.5425,0.5415,0.5404,0.5272,0.5324,0.5198,0.5185,0.5266,0.5181,0.518,0.5084,0.507,0.5039,0.4963,0.4955,0.496,0.4956,0.4953,0.4951,0,0,0,0,0,0,0,0.561,0.5592,0.5427,0.5423,0.541,0.5375,0.5354,0.53,0.5186,0.5259,0.5249,0.523,0.5078,0.5046,0.5034,0.4952,0.496,0.4954,0.495,0.4948,0.4856,0.4857,0,0,0,0,0,0,0.5634,0.56,0.5433,0.5422,0.5501,0.5372,0.5349,0.5316,0.5186,0.5165,0.5232,0.5225,0.5057,0.5041,0.5026,0.5007,0.4953,0.4947,0.4944,0.4855,0.4856,0.4858,0,0,0,0,0,0,0.5639,0.562,0.544,0.5508,0.5483,0.537,0.5334,0.5313,0.5281,0.5165,0.5143,0.522,0.5055,0.5035,0.4986,0.4999,0.4945,0.4939,0.4853,0.4855,0.4857,0.497,0,0,0,0,0,0,0.5646,0.5623,0.5622,0.5509,0.548,0.5407,0.5334,0.5311,0.5272,0.5261,0.5149,0.5129,0.5052,0.4996,0.498,0.4989,0.4934,0.4851,0.4854,0.4856,0.4965,0.4976,0.4985,0,0,0,0,0,0.5655,0.566,0.5622,0.5603,0.5476,0.5408,0.539,0.5305,0.5273,0.5269,0.5194,0.5132,0.5,0.4992,0.4973,0.498,0.485,0.4853,0.4856,0.4961,0.4974,0.4985,0,0,0,0,0,0,0.5775,0.5644,0.56,0.557,0.5501,0.5386,0.5379,0.5322,0.5259,0.5251,0.5145,0.512,0.5082,0.5025,0.502,0.4964,0.4917,0.4916,0.5003,0.5015,0.5025,0.5039,0.4929,0,0,0,0,0,0.5798,0.5756,0.5642,0.5626,0.5594,0.5493,0.546,0.54,0.5323,0.5293,0.5214,0.514,0.5081,0.5044,0.4984,0.4956,0.4928,0.4951,0.4961,0.497,0.4971,0.4948,0.4957,0.4867,0.4867,0.4867,0,0,0.5845,0.5768,0.5748,0.5648,0.5588,0.5544,0.5469,0.5426,0.5392,0.5285,0.5235,0.5174,0.5083,0.5045,0.5023,0.4996,0.4989,0.4974,0.4982,0.4977,0.4952,0.4961,0.4969,0.4869,0.4869,0.4869,0,0,0.5908,0.5847,0.5825,0.5767,0.5677,0.5609,0.5604,0.5496,0.5453,0.5401,0.5319,0.5274,0.5176,0.5115,0.507,0.5107,0.5047,0.509,0.5144,0.5123,0.513,0.5136,0.5148,0.5153,0.5091,0.5091,0.5091,0,0.5977,0.5911,0.5821,0.5783,0.574,0.5643,0.5619,0.5565,0.5459,0.5431,0.5402,0.5276,0.5208,0.5152,0.5161,0.5129,0.5117,0.5103,0.5137,0.5142,0.5146,0.5156,0.516,0.5097,0.5096,0.5096,0.5095,0,0.5999,0.5954,0.5947,0.585,0.5806,0.5775,0.5678,0.5643,0.5586,0.552,0.5466,0.5381,0.5301,0.5283,0.5226,0.5217,0.5203,0.5158,0.5108,0.5162,0.5169,0.5172,0.5105,0.5103,0.5102,0.51,0,0,0.6135,0.5987,0.5986,0.5939,0.5832,0.5794,0.5756,0.568,0.5652,0.5581,0.5545,0.5463,0.542,0.5369,0.5304,0.5286,0.5319,0.5242,0.5238,0.5258,0.5301,0.5337,0.5343,0.5278,0.5278,0.5278,0.5309,0,0.6181,0.6113,0.603,0.5989,0.5944,0.5849,0.5816,0.5745,0.5681,0.5631,0.5559,0.5503,0.545,0.5419,0.5397,0.532,0.5326,0.5316,0.5241,0.5239,0.5267,0.5347,0.5385,0.5418,0.5311,0.5312,0.5312,0,0.6227,0.6163,0.6118,0.6013,0.599,0.5963,0.5885,0.584,0.5755,0.5709,0.5653,0.5582,0.5534,0.5491,0.5421,0.5417,0.538,0.5337,0.5336,0.5326,0.528,0.5338,0.5426,0.5431,0.5316,0.5315,0.5315,0,0.6329,0.6231,0.6191,0.6155,0.6031,0.6013,0.596,0.5874,0.5832,0.5762,0.5734,0.5659,0.5618,0.5559,0.5469,0.5446,0.5409,0.5358,0.5367,0.537,0.5364,0.5366,0.5448,0.5342,0.5341,0.5341,0.5341,0,0.639,0.6366,0.6236,0.6212,0.618,0.6083,0.6053,0.5991,0.5915,0.5874,0.5786,0.5749,0.5632,0.558,0.5508,0.546,0.5442,0.5402,0.5383,0.541,0.5415,0.5385,0.538,0.5343,0.5342,0.5342,0.5342,0,0.65,0.6412,0.6362,0.6248,0.6219,0.6201,0.6102,0.6072,0.6003,0.5952,0.5934,0.5824,0.5758,0.5662,0.5566,0.5517,0.548,0.545,0.551,0.5499,0.5513,0.5513,0.5578,0.5581,0.5475,0.5476,0.5477,0,0.6544,0.6524,0.6408,0.6376,0.6326,0.6275,0.6232,0.6134,0.6092,0.5993,0.5975,0.5902,0.5839,0.5736,0.5646,0.5571,0.5538,0.5565,0.5526,0.5552,0.5537,0.5539,0.5535,0.5575,0.5577,0.5578,0.5579,0,0.6632,0.659,0.6533,0.6461,0.6414,0.6351,0.6284,0.6262,0.6148,0.6105,0.6038,0.5989,0.5891,0.5818,0.5731,0.5671,0.5606,0.5593,0.559,0.5618,0.5653,0.5633,0.5535,0.5592,0.559,0.559,0.5589,0.5588,0.671,0.6687,0.6602,0.6541,0.648,0.642,0.6386,0.6313,0.6255,0.617,0.6114,0.6049,0.596,0.5836,0.578,0.5725,0.5697,0.5695,0.5694,0.5695,0.5704,0.5662,0.5708,0.5708,0.5707,0.5707,0.5706,0,0.6793,0.6733,0.6678,0.6589,0.654,0.6484,0.6406,0.6368,0.6313,0.6238,0.6177,0.6098,0.6026,0.593,0.585,0.5825,0.5792,0.5807,0.5808,0.5795,0.5733,0.5743,0.5835,0.5835,0.5835,0.5835,0.5835,0.5835,0.683,0.6788,0.6734,0.6659,0.6598,0.6536,0.6496,0.6438,0.6377,0.6293,0.6234,0.6172,0.6087,0.6,0.5931,0.5904,0.5878,0.5903,0.5866,0.5811,0.5799,0.5788,0.5796,0.5898,0.5898,0.5932,0.5932,0.5932]}]]